TimeEDT,TemperatureF,Dew PointF,Humidity,Sea Level PressureIn,VisibilityMPH,Wind Direction,Wind SpeedMPH,Gust SpeedMPH,PrecipitationIn,Events,Conditions,WindDirDegrees,DateUTC
12:53 AM,43.0,42.1,97,29.82,7.0,NNW,8.1,-,0.06,Rain,Light Rain,330,2012-10-29 04:53:00
1:53 AM,43.0,41.0,93,29.80,10.0,NNW,5.8,-,0.03,Rain,Light Rain,340,2012-10-29 05:53:00
2:53 AM,43.0,41.0,93,29.80,9.0,NNW,6.9,-,0.06,Rain,Light Rain,340,2012-10-29 06:53:00
3:53 AM,43.0,39.9,89,29.78,10.0,NNW,9.2,-,0.01,,Overcast,330,2012-10-29 07:53:00
4:53 AM,43.0,39.9,89,29.76,10.0,NW,8.1,-,N/A,,Overcast,320,2012-10-29 08:53:00
5:53 AM,43.0,41.0,93,29.77,4.0,North,6.9,-,0.03,Rain,Light Rain,350,2012-10-29 09:53:00
6:53 AM,43.0,41.0,93,29.75,4.0,North,6.9,-,0.03,Rain,Light Rain,350,2012-10-29 10:53:00
7:53 AM,43.0,41.0,93,29.74,10.0,NW,5.8,-,0.04,Rain,Light Rain,320,2012-10-29 11:53:00
8:23 AM,42.8,39.2,87,29.72,7.0,NNW,6.9,-,0.02,Rain,Light Rain,330,2012-10-29 12:23:00
8:53 AM,43.0,39.9,89,29.74,4.0,NNW,8.1,20.7,0.04,Rain,Light Rain,330,2012-10-29 12:53:00
9:00 AM,42.8,39.2,87,29.72,5.0,NNW,11.5,18.4,0.01,Rain,Light Rain,330,2012-10-29 13:00:00
9:38 AM,42.8,39.2,87,29.71,5.0,Variable,4.6,-,0.05,Rain,Light Rain,0,2012-10-29 13:38:00
9:49 AM,42.8,39.2,87,29.71,5.0,NNW,11.5,18.4,0.06,Rain,Light Rain,330,2012-10-29 13:49:00
9:53 AM,43.0,41.0,93,29.72,4.0,NNW,11.5,18.4,0.07,Rain,Light Rain,330,2012-10-29 13:53:00
10:00 AM,42.8,39.2,87,29.71,4.0,NW,8.1,-,0.01,Rain,Light Rain,320,2012-10-29 14:00:00
10:15 AM,42.8,39.2,87,29.70,4.0,NW,5.8,-,0.03,Rain,Light Rain,310,2012-10-29 14:15:00
10:53 AM,43.0,39.9,89,29.70,5.0,NNW,8.1,-,0.08,Rain,Light Rain,330,2012-10-29 14:53:00
11:53 AM,43.0,39.9,89,29.68,5.0,NNW,9.2,17.3,0.08,Rain,Light Rain,330,2012-10-29 15:53:00
12:53 PM,43.0,39.9,89,29.65,6.0,NNW,8.1,-,0.07,Rain,Light Rain,330,2012-10-29 16:53:00
1:53 PM,43.0,39.9,89,29.60,6.0,NW,8.1,-,0.06,Rain,Light Rain,320,2012-10-29 17:53:00
2:51 PM,42.8,39.2,87,29.55,2.5,NNW,11.5,19.6,0.12,Rain,Rain,330,2012-10-29 18:51:00
2:53 PM,43.0,39.9,89,29.57,2.5,Variable,6.9,19.6,0.13,Rain,Rain,0,2012-10-29 18:53:00
3:02 PM,42.8,39.2,87,29.55,3.0,NNW,9.2,-,0.02,Rain,Rain,330,2012-10-29 19:02:00
3:53 PM,42.1,39.0,89,29.52,6.0,NW,11.5,18.4,0.13,Rain,Light Rain,320,2012-10-29 19:53:00
4:53 PM,42.1,39.0,89,29.49,4.0,NNW,10.4,25.3,0.19,Rain,Rain,330,2012-10-29 20:53:00
5:13 PM,42.8,39.2,87,29.47,2.0,NW,11.5,20.7,0.08,Rain,Rain,310,2012-10-29 21:13:00
5:53 PM,42.1,37.9,85,29.46,3.0,NW,9.2,27.6,0.22,Rain,Rain,320,2012-10-29 21:53:00
6:03 PM,42.8,39.2,87,29.44,3.0,NW,8.1,-,0.03,Rain,Rain,310,2012-10-29 22:03:00
6:49 PM,41.0,37.4,87,29.41,5.0,WNW,8.1,-,0.14,Rain,Rain,300,2012-10-29 22:49:00
6:53 PM,41.0,37.9,89,29.42,5.0,NW,11.5,17.3,0.15,Rain,Rain,320,2012-10-29 22:53:00
7:53 PM,41.0,37.0,86,29.38,3.0,NW,9.2,20.7,0.20,Rain,Rain,320,2012-10-29 23:53:00
8:45 PM,39.2,37.4,93,29.34,2.5,NW,11.5,19.6,0.22,Rain,Rain,320,2012-10-30 00:45:00
8:53 PM,39.9,37.0,89,29.34,3.0,NW,10.4,23.0,0.26,Rain,Rain,310,2012-10-30 00:53:00
9:53 PM,39.0,36.0,89,29.31,3.0,NW,11.5,20.7,0.21,Rain,Rain,310,2012-10-30 01:53:00
10:53 PM,37.0,34.0,89,29.26,3.0,WNW,8.1,18.4,0.23,Rain,Rain,300,2012-10-30 02:53:00
11:21 PM,35.6,33.8,93,29.21,2.5,WNW,9.2,17.3,0.09,Rain,Rain,300,2012-10-30 03:21:00
11:53 PM,35.1,33.1,92,29.17,1.8,West,10.4,20.7,0.16,Snow,Light Snow,270,2012-10-30 03:53:00